Wind_Speed
67 72 73 68 63 59 55 55 51 47 43 46 46 46 39 34 38 35 40 47 49 49 53 55 55 57 55 51 50 48 43 41 42 42 40 41 40 40 42 42 43 46 47 48
68 72 65 68 64 61 59 56 55 49 40 43 47 45 42 33 39 36 37 44 48 49 52 55 56 55 56 54 51 51 48 47 47 45 44 42 43 45 46 46 46 47 49 51
69 64 68 64 62 63 61 59 56 49 39 42 46 45 39 37 39 39 39 44 47 48 50 56 60 59 58 58 56 54 54 51 50 47 46 45 46 47 47 49 45 47 50 49
66 60 65 63 61 62 62 58 53 46 38 42 47 46 38 39 38 36 36 39 44 43 46 51 58 63 64 63 62 60 59 57 56 49 45 47 47 49 49 50 46 46 47 47
64 65 67 64 60 56 55 50 45 38 37 40 44 45 38 38 32 29 33 36 40 43 44 49 54 56 58 58 61 64 63 59 57 56 54 57 56 55 53 52 50 49 48 50
54 56 56 51 49 46 46 42 43 37 41 45 44 45 37 38 33 32 31 34 36 38 38 39 44 51 53 55 54 51 53 55 57 57 55 55 55 53 52 51 50 54 58 55
49 52 50 51 49 49 50 48 46 43 46 47 42 47 39 37 34 30 29 28 31 34 32 35 37 38 41 44 46 48 49 49 50 50 49 49 49 49 49 49 44 44 45 43
45 48 44 49 48 52 55 53 53 54 52 51 46 48 42 39 37 29 28 29 31 30 28 32 31 32 33 34 36 35 34 39 41 41 42 40 32 30 29 29 34 39 39 41
28 36 38 40 45 48 49 50 50 51 49 48 45 46 45 37 29 30 30 28 29 27 28 28 28 28 28 25 24 29 31 30 26 26 23 22 24 26 28 30 31 34 42 44
25 28 38 36 39 40 48 45 49 49 49 48 45 44 45 37 28 29 30 30 28 25 27 25 25 24 22 23 23 22 22 21 19 20 21 23 25 27 26 28 32 36 40 44
27 28 36 34 43 41 48 46 49 48 47 47 45 46 45 34 32 29 30 26 25 28 27 24 24 23 24 24 17 18 20 21 21 24 25 28 30 29 28 31 30 27 29 27
23 33 31 42 33 41 46 48 50 46 46 44 41 46 41 36 34 29 28 26 24 22 21 22 23 23 25 25 24 26 23 22 23 24 24 24 26 29 32 32 32 32 33 31
23 28 26 37 42 44 47 46 47 47 42 38 35 39 39 35 30 34 31 28 23 21 20 17 16 22 22 20 23 25 23 21 23 22 25 27 29 29 31 32 33 34 35 35
28 29 25 35 43 37 43 41 44 47 43 37 34 27 31 34 25 25 29 26 22 23 16 15 21 25 21 22 24 22 21 20 21 24 26 25 28 28 31 31 32 33 34 36
21 27 25 27 35 30 38 39 42 46 41 33 27 22 24 29 27 24 21 21 16 19 16 15 17 22 19 19 20 18 17 20 23 27 26 26 29 32 34 34 33 31 32 32
29 25 24 26 27 28 34 37 41 41 39 34 33 30 30 31 26 19 14 17 10 15 17 17 21 20 18 17 18 15 21 26 26 23 26 30 33 34 33 33 33 33 33 34
34 25 27 28 28 29 40 41 43 38 35 31 31 27 30 30 27 19 16 14 10 10 23 22 25 26 19 11 15 20 22 21 24 28 30 31 32 30 30 31 32 33 33 34
32 26 22 27 27 30 34 37 38 32 25 22 24 26 26 24 21 18 16 15 18 18 23 27 27 19 13 15 16 19 22 25 28 30 29 28 28 28 28 30 31 32 33 34
29 23 23 27 28 30 30 30 31 31 27 23 21 17 16 17 21 24 19 19 20 18 21 28 23 21 20 16 19 23 26 28 28 28 28 27 28 29 30 32 32 33 31 33
27 30 25 26 25 28 27 29 25 28 29 27 21 22 19 16 16 21 21 23 21 21 20 31 23 17 18 20 25 27 27 27 28 28 28 29 30 30 31 33 33 33 30 29
23 23 21 23 27 20 20 31 26 29 26 27 29 25 26 19 16 22 18 21 23 22 21 23 20 19 21 24 23 25 27 28 28 29 30 31 32 32 32 33 33 31 27 22
23 22 21 24 26 18 21 21 22 25 17 22 21 27 26 25 20 17 16 19 20 21 20 19 20 23 20 20 22 24 26 27 28 29 30 31 32 32 32 32 30 26 22 19
23 20 22 17 18 22 18 14 18 18 15 18 25 27 28 20 19 18 17 16 16 17 17 19 18 18 18 20 24 25 26 27 29 30 31 33 33 32 31 29 26 23 19 18
23 18 21 18 17 19 19 15 18 17 15 33 27 26 23 20 17 16 16 17 18 17 16 16 15 15 17 23 27 29 29 29 32 33 34 35 34 32 29 25 23 20 17 16
24 21 15 16 21 17 16 16 14 17 21 28 27 23 18 17 17 17 16 15 15 15 14 14 14 15 19 23 24 28 30 30 33 34 35 35 34 29 24 20 19 17 13 15
23 26 24 23 21 19 18 21 27 21 28 21 17 16 15 16 15 15 16 15 14 13 14 15 17 19 23 25 26 30 31 32 32 32 34 30 25 22 21 16 15 14 12 13
Wind_Direction
242 241 242 244 244 244 244 247 251 250 249 247 244 246 242 231 235 232 232 235 236 239 242 245 246 250 251 252 258 261 259 258 258 259 260 262 265 268 269 271 268 270 272 268
235 240 241 240 239 240 241 243 246 250 244 243 245 242 242 230 236 231 230 230 234 234 239 244 245 248 252 253 253 258 260 262 262 263 266 268 269 269 269 268 268 267 270 270
233 235 238 237 235 236 236 239 243 245 239 237 242 241 239 233 233 234 233 229 231 234 237 243 243 244 248 252 254 256 260 263 265 269 270 269 270 269 269 270 269 268 269 272
229 226 227 230 229 231 233 236 239 237 231 231 238 240 233 232 234 236 234 236 235 237 239 242 245 248 246 249 255 259 264 268 272 276 269 271 270 272 273 276 281 280 278 273
230 222 226 223 224 223 227 229 232 229 228 226 234 240 231 234 227 226 233 235 238 241 244 242 243 245 250 252 254 259 265 268 268 271 273 277 277 274 273 275 280 285 277 279
229 227 229 227 222 222 222 218 219 218 218 222 226 233 224 229 224 220 223 228 235 238 241 244 245 248 256 257 256 256 259 263 267 269 271 270 272 273 276 280 278 280 280 287
221 221 219 221 215 211 213 208 209 206 213 222 217 227 222 222 224 218 223 224 230 234 235 239 241 243 245 251 255 257 257 260 262 264 265 267 269 271 277 281 288 289 290 288
209 209 204 211 211 208 207 205 204 207 212 214 206 218 218 216 218 214 217 220 223 224 220 228 235 239 246 249 249 251 252 256 260 264 267 267 276 280 284 293 293 287 286 284
194 199 200 206 207 206 203 205 205 205 211 213 210 217 222 218 217 215 216 217 222 226 228 226 231 233 234 241 244 249 251 263 264 258 263 275 277 278 291 286 292 294 291 285
182 196 191 202 202 207 207 204 195 203 207 212 209 216 221 217 209 211 214 219 224 230 232 227 223 225 233 240 251 249 250 257 266 268 271 276 280 281 288 286 289 297 301 286
183 175 188 196 195 185 198 199 200 203 205 214 212 213 216 211 211 215 224 225 227 231 230 222 230 232 236 240 242 241 243 250 263 273 275 281 289 291 294 298 297 298 303 299
185 187 184 188 185 193 203 196 197 202 203 212 214 213 212 214 214 214 228 229 225 230 237 240 238 236 238 234 243 241 250 258 269 280 288 286 282 292 294 290 290 293 292 293
196 183 171 188 190 188 201 202 197 194 192 204 208 207 210 214 217 221 219 220 222 222 218 217 242 239 222 225 236 236 246 265 277 279 280 290 294 295 295 297 292 289 284 283
188 190 199 197 191 191 194 200 199 192 188 195 206 201 206 212 203 201 215 223 219 207 216 244 250 228 225 233 243 249 260 269 278 285 290 292 294 296 303 305 303 292 288 288
182 194 192 188 189 197 197 196 196 190 188 194 193 201 194 200 196 204 216 218 189 212 240 240 221 210 217 233 242 248 258 264 270 281 286 289 292 295 294 295 296 296 294 291
189 186 181 186 190 192 194 193 191 189 194 193 202 202 202 207 206 203 197 198 194 214 227 231 211 215 225 230 239 257 266 267 273 284 291 294 292 292 295 296 297 296 293 291
188 179 181 183 188 198 189 193 193 193 201 216 213 209 214 211 206 204 198 187 221 261 225 207 213 221 228 247 260 269 273 284 288 288 289 293 296 297 299 300 297 297 296 293
177 184 181 184 176 178 188 193 193 181 181 188 197 205 214 218 214 228 237 214 228 248 222 217 218 219 240 256 264 275 282 286 287 286 294 296 297 301 306 307 306 298 292 292
178 193 188 187 186 185 192 192 197 200 194 201 202 201 201 212 218 228 224 209 218 232 232 218 209 239 249 254 270 281 282 283 287 290 288 288 290 298 306 307 306 304 300 298
182 177 182 184 190 191 194 201 195 194 208 212 206 196 213 222 215 208 224 217 219 218 222 207 233 262 239 258 273 278 281 283 283 283 282 283 287 296 304 307 308 305 300 299
168 178 189 191 192 194 206 204 201 201 203 210 217 211 207 223 219 224 210 212 217 206 218 228 235 238 248 262 271 277 281 282 282 282 285 287 291 299 303 305 307 302 298 301
166 180 173 188 203 205 191 186 198 208 187 197 203 206 204 215 208 206 206 206 209 220 224 223 239 247 260 273 279 282 283 285 287 287 288 291 293 297 300 302 303 297 295 295
169 181 180 173 192 190 183 189 213 190 184 193 184 181 206 205 195 202 212 218 222 227 234 244 254 266 273 281 289 295 294 292 293 295 298 299 299 300 297 297 297 293 289 296
173 172 180 193 196 184 194 184 197 206 188 153 173 188 192 198 208 209 219 225 232 237 241 250 259 274 297 304 305 297 295 297 298 299 300 299 296 295 291 289 287 280 285 298
171 166 152 156 181 180 154 188 183 186 178 163 173 183 201 215 223 226 228 233 238 243 248 263 276 291 298 301 302 300 298 298 298 295 297 296 292 289 281 281 275 271 283 305
165 158 145 139 152 158 164 170 171 176 177 185 189 208 216 218 225 228 231 235 241 253 266 275 285 294 300 299 301 300 299 300 299 298 299 296 287 280 275 267 256 269 285 314
Height
5646 5650 5661 5681 5688 5696 5702 5708 5714 5720 5726 5728 5730 5733 5741 5746 5748 5753 5759 5765 5771 5777 5780 5784 5790 5792 5796 5801 5806 5811 5816 5819 5821 5824 5827 5827 5827 5828 5828 5828 5828 5828 5826 5827
5621 5635 5657 5657 5668 5679 5688 5695 5701 5707 5715 5718 5720 5724 5730 5738 5739 5744 5751 5756 5761 5766 5770 5775 5781 5787 5790 5794 5799 5802 5806 5809 5811 5814 5815 5816 5817 5818 5817 5818 5818 5819 5816 5815
5606 5627 5630 5641 5653 5664 5676 5683 5689 5696 5703 5707 5711 5716 5722 5729 5732 5736 5743 5749 5754 5759 5765 5767 5771 5777 5782 5785 5790 5794 5796 5800 5802 5803 5804 5805 5806 5807 5807 5807 5807 5807 5805 5804
5586 5605 5611 5623 5637 5649 5660 5669 5677 5684 5690 5697 5701 5708 5715 5719 5724 5730 5735 5742 5748 5754 5759 5763 5765 5769 5773 5778 5781 5785 5788 5791 5791 5792 5793 5793 5794 5794 5795 5794 5795 5794 5794 5795
5579 5586 5592 5607 5625 5634 5647 5658 5668 5675 5679 5688 5694 5701 5708 5711 5719 5724 5729 5735 5742 5747 5751 5756 5759 5761 5763 5767 5773 5775 5778 5781 5783 5784 5784 5783 5782 5782 5782 5783 5782 5781 5781 5782
5561 5577 5583 5606 5615 5626 5636 5648 5656 5661 5668 5677 5685 5692 5702 5704 5711 5717 5723 5728 5735 5741 5744 5747 5750 5754 5756 5759 5764 5767 5768 5769 5772 5773 5774 5774 5773 5772 5771 5770 5770 5767 5765 5767
5550 5561 5578 5587 5598 5609 5619 5631 5641 5649 5657 5669 5679 5682 5693 5699 5705 5713 5719 5724 5729 5734 5738 5740 5743 5746 5749 5752 5755 5758 5760 5761 5762 5764 5765 5765 5763 5762 5763 5762 5759 5756 5756 5755
5540 5550 5564 5576 5586 5600 5607 5619 5628 5635 5646 5657 5667 5673 5683 5692 5699 5709 5714 5718 5723 5727 5732 5734 5737 5740 5743 5745 5747 5749 5751 5752 5754 5754 5755 5756 5756 5754 5753 5752 5751 5749 5746 5746
5541 5551 5562 5571 5582 5593 5601 5613 5628 5634 5645 5653 5663 5671 5678 5687 5698 5703 5707 5712 5717 5721 5726 5730 5732 5735 5737 5739 5741 5741 5743 5745 5747 5747 5747 5747 5747 5747 5746 5745 5744 5742 5739 5737
5542 5551 5560 5570 5578 5589 5602 5615 5619 5630 5640 5647 5659 5667 5673 5683 5692 5697 5702 5707 5712 5717 5720 5723 5726 5729 5731 5733 5734 5735 5738 5740 5740 5741 5740 5740 5740 5741 5740 5738 5736 5732 5727 5725
5542 5549 5559 5566 5573 5585 5593 5602 5617 5627 5637 5643 5654 5662 5669 5680 5686 5692 5696 5702 5707 5711 5714 5718 5720 5723 5724 5725 5727 5729 5731 5732 5732 5734 5734 5734 5733 5733 5732 5730 5728 5726 5722 5718
5543 5550 5557 5565 5577 5586 5591 5601 5612 5622 5632 5639 5648 5659 5666 5674 5682 5687 5692 5697 5702 5706 5710 5713 5715 5717 5718 5720 5721 5722 5723 5726 5728 5728 5727 5727 5726 5724 5723 5721 5719 5717 5715 5712
5543 5549 5554 5563 5572 5578 5588 5600 5611 5620 5631 5638 5646 5654 5662 5670 5677 5682 5687 5692 5697 5701 5705 5708 5710 5711 5712 5714 5716 5718 5721 5721 5722 5723 5722 5721 5719 5717 5715 5711 5708 5706 5704 5703
5543 5550 5557 5563 5571 5580 5586 5599 5610 5619 5627 5637 5645 5653 5658 5667 5674 5678 5684 5688 5693 5697 5701 5702 5702 5705 5707 5709 5711 5713 5715 5717 5717 5716 5714 5712 5711 5709 5705 5702 5700 5697 5695 5693
5544 5552 5559 5565 5575 5582 5592 5599 5608 5617 5628 5637 5644 5651 5658 5665 5670 5677 5682 5685 5688 5692 5694 5696 5697 5700 5702 5704 5707 5709 5710 5711 5711 5711 5709 5707 5705 5703 5700 5698 5695 5691 5688 5686
5545 5552 5561 5568 5575 5583 5593 5602 5610 5619 5627 5633 5641 5647 5653 5660 5668 5674 5678 5682 5685 5688 5689 5692 5694 5696 5698 5700 5704 5705 5705 5705 5705 5703 5701 5700 5699 5696 5693 5690 5687 5683 5681 5677
5548 5556 5563 5569 5578 5585 5594 5600 5608 5619 5627 5633 5638 5645 5651 5658 5665 5670 5672 5677 5680 5682 5684 5687 5690 5691 5695 5697 5699 5699 5699 5697 5697 5696 5695 5693 5691 5688 5684 5681 5678 5675 5671 5668
5554 5559 5566 5573 5579 5587 5595 5602 5612 5618 5625 5631 5636 5642 5649 5656 5663 5666 5668 5672 5675 5678 5680 5682 5686 5689 5691 5692 5693 5694 5693 5692 5691 5690 5688 5686 5684 5681 5678 5675 5671 5668 5664 5661
5557 5563 5569 5575 5581 5590 5595 5602 5610 5617 5625 5629 5635 5642 5648 5654 5658 5661 5665 5668 5671 5674 5676 5679 5683 5684 5686 5686 5687 5687 5687 5686 5685 5683 5682 5680 5678 5674 5671 5667 5663 5660 5656 5652
5561 5566 5572 5578 5584 5590 5597 5603 5609 5615 5622 5629 5635 5640 5645 5650 5654 5658 5660 5663 5666 5670 5672 5675 5678 5680 5681 5681 5682 5682 5681 5679 5678 5676 5675 5673 5671 5668 5664 5660 5656 5652 5649 5645
5563 5568 5574 5580 5585 5590 5596 5602 5608 5614 5624 5627 5632 5637 5642 5648 5650 5653 5656 5659 5663 5666 5668 5671 5674 5675 5676 5676 5676 5676 5675 5673 5671 5669 5666 5665 5662 5659 5656 5653 5649 5646 5642 5640
5565 5569 5574 5580 5586 5592 5596 5602 5607 5614 5619 5624 5630 5636 5640 5644 5647 5651 5654 5657 5661 5663 5666 5668 5670 5671 5671 5670 5670 5670 5668 5666 5663 5661 5658 5656 5654 5651 5648 5645 5642 5639 5637 5635
5566 5573 5579 5584 5587 5593 5598 5603 5607 5613 5618 5622 5627 5633 5637 5641 5645 5650 5653 5655 5657 5659 5661 5663 5665 5665 5666 5666 5664 5661 5658 5656 5654 5651 5649 5646 5643 5641 5639 5637 5635 5632 5632 5631
5569 5575 5580 5585 5588 5593 5598 5602 5608 5613 5618 5623 5628 5632 5637 5641 5645 5647 5650 5652 5654 5656 5658 5659 5660 5660 5659 5657 5656 5654 5651 5648 5645 5643 5640 5637 5635 5633 5631 5630 5629 5628 5628 5626
5573 5577 5581 5584 5588 5595 5599 5603 5609 5614 5619 5621 5628 5633 5636 5640 5642 5645 5647 5649 5650 5652 5653 5653 5653 5653 5652 5650 5648 5646 5644 5641 5638 5635 5633 5629 5627 5625 5624 5624 5623 5623 5623 5622
5574 5578 5584 5588 5592 5597 5601 5604 5609 5615 5619 5625 5629 5633 5635 5638 5640 5642 5644 5645 5646 5647 5648 5648 5648 5647 5645 5643 5641 5639 5636 5634 5631 5628 5625 5621 5619 5617 5617 5618 5619 5618 5619 5617